Location: Athabasca
(54.7194°N, 113.2858°W)
Time: 22:57:26
(UTC+00:00)

FO-29 - Visible Passes

Search period start: 01 December 2023 00:00
Search period end: 11 December 2023 00:00
Orbit: 800 x 1321 km, 98.6° (Epoch: 29 November)

Date Brightness Start Highest point End Pass type
(mag) Time Alt. Az. Time Alt. Az. Time Alt. Az.
01 Dec 11.8 09:23:21 10° NNE 09:26:40 23° NE 09:26:40 23° NE visible
01 Dec 10.4 11:08:03 10° NNE 11:13:08 51° N 11:13:08 51° N visible
01 Dec 10.8 12:53:46 10° N 12:59:35 28° NW 12:59:36 28° NW visible
01 Dec 11.6 14:41:10 10° NNW 14:42:30 11° NNW 14:43:51 10° NW visible
02 Dec 12.4 08:29:49 10° NE 08:30:47 12° NE 08:30:47 12° NE visible
02 Dec 11.1 10:12:56 10° NNE 10:17:15 36° NE 10:17:15 36° NE visible
02 Dec 10.4 11:58:13 10° N 12:03:43 44° NNW 12:03:43 44° NNW visible
02 Dec 11.3 13:44:20 10° N 13:48:42 18° NW 13:50:12 16° NW visible
03 Dec 11.9 09:18:15 10° NNE 09:21:23 22° NE 09:21:23 22° NE visible
03 Dec 10.6 11:02:52 10° NNE 11:07:51 49° NNE 11:07:51 49° NNE visible
03 Dec 10.8 12:48:32 10° N 12:54:20 29° NW 12:54:20 29° NW visible
03 Dec 11.6 14:35:31 10° NNW 14:37:30 11° NNW 14:39:31 10° NW visible
04 Dec 12.5 08:24:52 10° NE 08:25:30 11° NE 08:25:30 11° NE visible
04 Dec 11.3 10:07:47 10° NNE 10:11:59 34° NE 10:11:59 34° NE visible
04 Dec 10.5 11:53:01 10° N 11:58:27 45° NNW 11:58:27 45° NNW visible
04 Dec 11.2 13:39:03 10° N 13:43:41 18° NW 13:44:55 18° NW visible
05 Dec 12.0 09:13:09 10° NNE 09:16:06 20° NE 09:16:06 20° NE visible
05 Dec 10.7 10:57:43 10° NNE 11:02:35 47° NNE 11:02:35 47° NNE visible
05 Dec 10.8 12:43:19 10° N 12:49:03 31° NW 12:49:03 31° NW visible
05 Dec 11.6 14:30:02 10° N 14:32:30 12° NNW 14:35:01 10° NW visible
06 Dec 12.5 08:19:58 10° NE 08:20:14 10° NE 08:20:14 10° NE visible
06 Dec 11.4 10:02:39 10° NNE 10:06:43 33° NE 10:06:43 33° NE visible
06 Dec 10.5 11:47:51 10° N 11:53:11 45° NNW 11:53:11 45° NNW visible
06 Dec 11.2 13:33:48 10° N 13:38:41 19° NW 13:39:39 19° NW visible
06 Dec 12.4 23:59:12 10° W 00:00:23 10° WNW 00:01:36 10° WNW visible
07 Dec 12.0 09:08:04 10° NNE 09:10:51 19° NE 09:10:51 19° NE visible
07 Dec 10.8 10:52:34 10° NNE 10:57:19 45° NNE 10:57:19 45° NNE visible
07 Dec 10.8 12:38:07 10° N 12:43:48 32° NW 12:43:48 32° NW visible
07 Dec 11.6 14:24:38 10° N 14:27:30 13° NNW 14:30:16 10° NW visible
08 Dec 11.5 09:57:31 10° NNE 10:01:27 31° NE 10:01:27 31° NE visible
08 Dec 10.6 11:42:41 10° N 11:47:56 45° NNW 11:47:56 45° NNW visible
08 Dec 11.2 13:28:35 10° N 13:33:40 20° NW 13:34:24 20° NW visible
08 Dec 12.3 23:52:54 10° W 23:55:06 12° WNW 23:57:24 10° NW visible
09 Dec 12.1 09:03:00 10° NNE 09:05:36 18° NE 09:05:36 18° NE visible
09 Dec 10.9 10:47:25 10° NNE 10:52:04 42° NNE 10:52:04 42° NNE visible
09 Dec 10.8 12:32:57 10° N 12:38:33 33° NW 12:38:33 33° NW visible
09 Dec 11.6 14:19:19 10° N 14:22:31 13° NNW 14:25:01 11° NW visible
10 Dec 11.6 09:52:26 10° NNE 09:56:13 29° NE 09:56:13 29° NE visible
10 Dec 10.6 11:37:31 10° NNE 11:42:41 44° NNW 11:42:41 44° NNW visible
10 Dec 11.2 13:23:22 10° N 13:28:40 21° NW 13:29:09 21° NW visible
10 Dec 12.3 23:46:58 10° W 23:49:50 13° WNW 23:52:50 10° NW visible
